W6CDO Weather Reports


time (UTC)temp
C
wind
direction
speed
KPH
gust
KPH
rain 1hr
cm
rain 24hr
cm
rain mn
cm
humidity
%
barometer
mb
20260507003255 21 303 8.0 25.7 0.00 0.00 0.00 62 1017.8
20260506233257 21 296 11.3 25.7 0.00 0.00 0.00 61 1017.8
20260506223255 21 281 11.3 24.1 0.00 0.00 0.00 60 1018.4
20260506213255 21 338 9.7 19.3 0.00 0.00 0.00 60 1018.8
20260506203255 21 6 3.2 19.3 0.00 0.00 0.00 58 1019.4
20260506193255 20 238 8.0 16.1 0.00 0.00 0.00 62 1020.1
20260506183253 18 34 6.4 14.5 0.00 0.00 0.00 68 1020.4
20260506173251 18 317 4.8 9.7 0.00 0.00 0.00 68 1020.5
20260506163252 16 97 1.6 8.0 0.00 0.00 0.00 73 1020.7
20260506153253 15 281 3.2 9.7 0.00 0.00 0.00 78 1020.6
20260506150018 13 282 1.6 4.8 0.00 0.00 0.00 84 1020.5
20260506133253 13 296 3.2 6.4 0.00 0.00 0.00 86 1019.9
20260506123249 12 248 0.0 4.8 0.00 0.00 0.00 88 1019.5
20260506113249 12 275 0.0 4.8 0.00 0.03 0.00 87 1019.2
20260506103249 12 303 0.0 3.2 0.00 0.03 0.00 87 1019.0
20260506093247 13 283 0.0 4.8 0.00 0.05 0.00 85 1018.9
20260506083248 13 283 0.0 4.8 0.00 0.10 0.00 85 1018.9
20260506073247 13 285 1.6 8.0 0.00 0.10 0.00 84 1018.7
20260506043244 14 217 6.4 11.3 0.00 0.10 0.10 82 1017.5
20260506033248 14 293 6.4 0.0 0.00 0.10 0.10 80 1016.8
20260506023135 16 268 6.4 20.9 0.00 0.10 0.10 74 1016.1
20260506013134 16 230 8.0 22.5 0.00 0.10 0.10 70 1015.9